www.pogodaiklimat.ru
ПОГОДА в Аштабьюле
Время
и дата
16:53 27.09
17:53 27.09
18:20 27.09
18:35 27.09
18:53 27.09
19:53 27.09
20:03 27.09
20:53 27.09
21:51 27.09
21:53 27.09
22:05 27.09
22:34 27.09
22:53 27.09
23:14 27.09
23:53 27.09
00:31 28.09
00:37 28.09
00:53 28.09
01:07 28.09
01:45 28.09
01:49 28.09
01:53 28.09
02:15 28.09
02:53 28.09
03:35 28.09
03:53 28.09
04:53 28.09
05:53 28.09
06:50 28.09
06:53 28.09
06:58 28.09
07:10 28.09
07:27 28.09
07:53 28.09
08:53 28.09
09:53 28.09
10:18 28.09
10:53 28.09
11:09 28.09
11:22 28.09
11:53 28.09
12:31 28.09
12:53 28.09
13:17 28.09
13:53 28.09
14:53 28.09
15:16 28.09
15:53 28.09
Ветер
(напр.,м/с)
Видим. Явления Облачность Т
(С)
Тd
(С)
f
(%)
Тe
(С)
Тes
(С)
Комфортность P
(гПа)
Po
(гПа)
Тmin
(С)
Tmax
(С)
R
(мм)
R24
(мм)
S
(см)
СЗ 5 16 км слабый дождь 10/10 870 m
[Ns]
+12.2 +8.3 77 +10 +10 1014.8 981.4
ЮЗ 4 16 км слабый дождь 10/8 1050 m
[Ac Ns]
+11.1 +8.3 83 +9 +9 1015.4 981.7
нст 3 3 км сильный дождь, дымка 10/10 960 m
[Ns]
+10.6 +8.3 86 +9 +9 982.4
ЮЗ 4 5 км слабый дождь, дымка 10/10 990 m
[Ns]
+10.6 +8.3 86 +8 +8 982.4
ЮЗ 4 16 км слабый дождь 10/10 900 m
[Ns]
+10.6 +8.3 86 +8 +8 1016.1 982.4 +10.6 +15.0 6.9
ЮЗ 3 3 км дождь, дымка 10/10 870 m
[Ns]
+10.6 +8.3 86 +9 +9 1016.6 983.0
ЮЗ 2 11 км слабый дождь 10/8 720 m
[Ac Ns]
+10.6 +8.9 89 +9 +9 983.0
З 2 16 км 10/8 810 m
[Ac]
+10.6 +8.9 89 +9 +9 1017.3 983.7
Ю 2 4 км дождь, дымка 10/10 630 m
[Ns]
+11.0 +9.0 87 +10 +10 984.0
ЮЗ 2 4 км дождь, дымка 10/10 630 m
[Ns]
+10.6 +8.9 89 +9 +9 1017.6 984.0 4.3
ЮЗ 2 6 км слабый дождь, дымка 10/10 570 m
[Ns]
+10.6 +8.9 89 +9 +9 984.0
ЮЗ 2 16 км 10/10 630 м +10.6 +8.9 89 +9 +9 984.7
ЮЗ 2 16 км слабый дождь 10/10 630 m
[Ns]
+10.6 +9.4 92 +9 +9 1018.5 984.7
ЮЗ 2 14 км 10/10 660 м +10.6 +9.4 92 +9 +9 984.7
З 3 16 км 10/10 600 м +10.6 +9.4 92 +8 +8 1018.3 984.7
З 2 5 км слабый дождь, дымка 10/10 360 m
[Ns]
+11.1 +10.0 93 +10 +10 985.0
З 3 5 км дождь, дымка 10/10 240 m
[Ns]
+11.1 +10.0 93 +9 +9 985.0
нст 2 16 км 10/10 120 м +11.1 +10.6 97 +10 +10 1018.6 985.0 +10.6 +11.1 6.4
штиль 0 11 км слабый дождь 10/10 180 m
[Ns]
+11.1 +10.6 97 +10 +10 985.0
ЮЗ 2 16 км 10/10 390 м +11.1 +10.0 93 +10 +10 985.3
З 2 16 км 10/10 120 м +11.0 +10.0 94 +10 +10 985.3
штиль 0 16 км 8/8 420 м +11.1 +10.6 97 +10 +10 1018.9 985.3
СЗ 2 5 км дождь, дымка 10/10 420 m
[Ns]
+11.1 +10.0 93 +10 +10 985.3
штиль 0 13 км слабый дождь 10/10 570 m
[Ns]
+11.7 +10.6 93 +11 +11 1019.3 985.7
З 2 10 км слабый дождь, дымка 10/10 600 m
[Ns]
+11.7 +10.0 89 +11 +11 986.0
СЗ 2 14 км слабый дождь 10/10 660 m
[Ns]
+11.7 +10.6 93 +10 +10 1019.8 986.0 1.3
З 2 16 км 8/8 930 м +11.1 +10.0 93 +10 +10 1020.6 987.0
З 2 16 км 8/8 600 м +10.0 +8.9 93 +8 +8 1021.2 987.3
З 3 16 км 10/10 450 м +12.0 +11.0 94 +10 +10 988.3
З 4 10 км дымка 10/10 390 м +11.7 +10.6 93 +9 +9 1022.3 988.3 +10.0 +11.7 1.8 15.2
З 3 3 км дождь, дымка 10/10 480 m
[Ns]
+11.7 +10.0 89 +10 +10 988.6
СЗ 3 5 км слабый дождь, дымка 10/10 360 m
[Ns]
+11.7 +10.0 89 +10 +10 988.6
СЗ 2 13 км слабый дождь 8/8 780 m
[Ns]
+11.7 +10.0 89 +11 +11 988.9
З 2 16 км 5/5 570 м +12.2 +11.1 93 +11 +11 1023.0 989.3
нст 3 16 км 10/8 630 m
[Ac]
+13.3 +10.0 80 +12 +12 1023.6 989.9
нст 3 16 км 8/2 870 m
[Ac]
+15.0 +10.0 72 +14 +16 1024.4 990.6 1.3
нст 2 10 км слабый дождь 10/10 630 m
[Ns]
+13.3 +10.0 80 +13 +13 990.9
СЗ 4 16 км 8/8 630 м +15.0 +10.6 75 +14 +15 1025.0 991.2
С 4 16 км 8/8 660 м +13.9 +10.0 77 +12 +14 991.2
С 4 16 км 5/5 660 м +15.6 +10.6 72 +15 +18 991.6
СЗ 4
{7}
16 км 5/5 750 м +15.6 +8.9 64 +15 +18 1025.5 991.6
С 4 16 км 8/8 630 м +14.4 +9.4 72 +13 +15 991.9
С 3
{8}
16 км 10/10 630 м +14.4 +9.4 72 +14 +14 1026.1 992.2 +12.2 +16.1 1.3
С 4 16 км 10/10 600 м +14.4 +9.4 72 +13 +13 992.2
СЗ 5 16 км 8/8 840 м +14.4 +8.9 70 +13 +14 1026.3 992.5
С 3 16 км 10/8 660 m
[Ac]
+14.4 +8.9 70 +14 +14 1026.4 992.5
СЗ 4 16 км 10/5 660 m
[Ac]
+15.6 +9.4 67 +15 +15 992.5
СЗ 4 16 км 5/0 2400 m
[Ac]
+15.6 +8.9 64 +15 +18 1026.7 992.9
Местоположение метеостанции Ashtabula County Airport: широта 41.7794 долгота -80.6967 высота над уровнем моря 281 м.
В архиве по умолчанию представлена погода в Аштабьюле за последние 1-2 суток. Обновление информации о фактической погоде в базе происходит ежечасно! Архивные данные за месяц целиком и за предыдущие месяцы Вы можете получить, выбрав интересующий диапазон дат из раскрывающегося списка и нажав кнопку "Ввод!".
Внимание! Архив погоды МЕТАР в базе сайта по станциям, не включенным в климатический монитор, хранится не более 60 дней. Нет смысла пытаться выбрать более раннюю дату.
*Определитесь, кто Вы:
Внимание! Время в таблицах - местное (без учета летнего времени). Для получения всемирного времени необходимо вычесть поправку, которая равна -5 ч.
Смотрите также архив погоды в соседних городах и на ближайших метеорологических станциях:
Партнеры нашего сайта:      
Пояснения к столбцам:
  • Ветер - указаны скорость ветра в м/с - средняя за 10 мин, порывы в срок и между сроками (в фигурных скобках) и направление, откуда дует ветер: С - северный,
  • СВ - северо-восточный, В - восточный, ЮВ - юго-восточный, Ю - южный, ЮЗ - юго-западный, З - западный, СЗ - северо-западный.
  • Видимость - горизонтальная дальность видимости в метрах или километрах. При видимости от 1 до 10 км при отсутствии осадков обычно наблюдается дымка, при ухудшении видимости до 1 км и менее - туман. В сухую погоду видимость может ухудшаться дымом, пылью или мглою.
  • Явления - указаны атмосферные явления, наблюдавшиеся в срок или в последний час перед сроком; фигурными скобками обозначены явления, наблюдавшиеся между сроками (за 1-3 часа до срока); квадратными скобками обозначены град или гололедные отложения с указанием их диаметра в мм.
  • Облачность - указаны через наклонную черту общая и нижняя облачность в баллах и высота нижней границы облаков в метрах; квадратными скобками обозначены формы облаков: Ci - перистые, Cs - перисто-слоистые, Cc - перисто-кучевые, Ac - высококучевые, As - высокослоистые, Sc - слоисто-кучевые, Ns - слоисто-дождевые, Cu - кучевые, Cb - кучево-дождевые. Подробнее классификацию облаков см. в Атласе облаков (PDF).
  • T - Температура воздуха - температура, измеренная на высоте 2 м над землей.
  • Td - Температура точки росы - температура, при понижении до которой содержащийся в воздухе водяной пар достигнет насыщения.
  • f - Относительная влажность воздуха - влажноcть воздуха, измеренная на высоте 2 м над землей.
  • Te - Эффективная температура - температура, которую ощущает одетый по сезону человек в тени. Характеристика душности погоды. При расчете учитывается влияние влажности воздуха и скорости ветра на теплоощущения человека.
  • Tes - Эффективная температура на солнце - температура, которую ощущает человек, с поправкой на солнечный нагрев. Характеристика знойности погоды. Зависит от высоты солнца над горизонтом, облачности и скорости ветра. Ночью, в пасмурную погоду, а также при ветре 12 м/с и более поправка равна нулю.
  • P - Атмосферное давление - приведенное к уровню моря атмосферное давление.
  • Po - Атмосферное давление - измеренное на уровне метеостанции атмосферное давление.
  • Tmin - Минимальная температура - минимум температуры воздуха на высоте 2 м над землей.
  • Tmax - Максимальная температура - максимум температуры воздуха на высоте 2 м над землей.
  • R - Количество осадков - Количество выпавших осадков за период времени, мм. При наведении курсора мыши на число - период времени, за который выпало указанное количество осадков.
  • R24 - Количество осадков - Количество выпавших осадков за 24 часа, мм.
  • S - Снежный покров - Высота снежного покрова, см. При наведении курсора мыши на число - состояние снежного покрова и степень покрытия местности в баллах.